NT2C Weather Reports


Display with metric or nautical units.
time (UTC)temp
F
wind
direction
speed
MPH
gust
MPH
rain 1hr
in
rain 24hr
in
rain mn
in
humidity
%
barometer
mb
20260509235540 73 206 0.0 2.0 0.00 0.00 0.00 56 1000.7
20260509235041 73 166 0.0 3.0 0.00 0.00 0.00 55 1000.7
20260509234544 74 207 1.0 3.0 0.00 0.00 0.00 54 1000.6
20260509234039 74 228 0.0 3.0 0.00 0.00 0.00 54 1000.7
20260509233544 75 225 1.0 5.0 0.00 0.00 0.00 53 1000.7
20260509233040 75 238 1.0 4.0 0.00 0.00 0.00 53 1000.6
20260509232544 75 209 1.0 5.0 0.00 0.00 0.00 52 1000.5
20260509232040 75 235 2.0 4.0 0.00 0.00 0.00 52 1000.6
20260509231540 75 212 1.0 5.0 0.00 0.00 0.00 52 1000.6
20260509231038 75 191 2.0 9.0 0.00 0.00 0.00 52 1000.6
20260509230538 75 243 3.0 9.0 0.00 0.00 0.00 52 1000.5
20260509230047 75 206 4.0 7.0 0.00 0.00 0.00 51 1000.6
20260509225539 76 224 3.0 7.0 0.00 0.00 0.00 52 1000.5
20260509225037 76 139 2.0 7.0 0.00 0.00 0.00 52 1000.4
20260509224547 75 221 3.0 8.0 0.00 0.00 0.00 52 1000.4
20260509224041 75 224 3.0 8.0 0.00 0.00 0.00 52 1000.4
20260509223536 75 231 4.0 8.0 0.00 0.00 0.00 52 1000.4
20260509223041 75 176 1.0 6.0 0.00 0.00 0.00 52 1000.4
20260509222536 75 236 2.0 8.0 0.00 0.00 0.00 52 1000.4
20260509222036 75 234 3.0 11.0 0.00 0.00 0.00 52 1000.6
20260509221536 75 233 5.0 11.0 0.00 0.00 0.00 52 1000.6
20260509221036 75 250 2.0 5.0 0.00 0.00 0.00 53 1000.6
20260509220635 75 232 1.0 7.0 0.00 0.00 0.00 53 1000.6
20260509220036 75 235 2.0 8.0 0.00 0.00 0.00 53 1000.6
20260509215533 75 238 1.0 5.0 0.00 0.00 0.00 52 1000.5
20260509215033 75 234 1.0 12.0 0.00 0.00 0.00 52 1000.6
20260509214532 75 219 7.0 12.0 0.00 0.00 0.00 52 1000.6
20260509214034 75 223 4.0 10.0 0.00 0.00 0.00 51 1000.7
20260509213531 75 212 3.0 12.0 0.00 0.00 0.00 51 1000.6
20260509213030 76 201 5.0 11.0 0.00 0.00 0.00 51 1000.5
20260509212529 76 217 2.0 11.0 0.00 0.00 0.00 52 1000.4
20260509212033 76 196 3.0 8.0 0.00 0.00 0.00 51 1000.5
20260509211529 75 225 2.0 8.0 0.00 0.00 0.00 52 1000.4
20260509211029 76 210 3.0 12.0 0.00 0.00 0.00 51 1000.3
20260509210529 76 233 4.0 12.0 0.00 0.00 0.00 52 1000.3
20260509210028 76 261 3.0 12.0 0.00 0.00 0.00 52 1000.3
20260509205528 76 221 5.0 13.0 0.00 0.00 0.00 51 1000.3
20260509205028 76 170 3.0 13.0 0.00 0.00 0.00 53 1000.3
20260509204528 75 214 6.0 13.0 0.00 0.00 0.00 52 1000.2
20260509204028 76 203 5.0 13.0 0.00 0.00 0.00 53 1000.1
20260509203528 76 217 6.0 13.0 0.00 0.00 0.00 52 1000.2
20260509203034 76 231 4.0 11.0 0.00 0.00 0.00 52 1000.3
20260509202527 76 232 4.0 11.0 0.00 0.00 0.00 53 1000.3
20260509202026 76 207 4.0 13.0 0.00 0.00 0.00 53 1000.3
20260509201526 75 222 6.0 15.0 0.00 0.00 0.00 54 1000.4
20260509201028 75 218 5.0 15.0 0.00 0.00 0.00 55 1000.5
20260509200524 76 207 3.0 15.0 0.00 0.00 0.00 54 1000.4
20260509200024 76 220 2.0 15.0 0.00 0.00 0.00 55 1000.6
20260509195523 75 175 5.0 13.0 0.00 0.00 0.00 54 1000.7
20260509195022 75 234 4.0 13.0 0.00 0.00 0.00 56 1000.7
20260509194526 75 156 2.0 12.0 0.00 0.00 0.00 57 1000.9
20260509194020 74 230 5.0 12.0 0.00 0.00 0.00 56 1000.9
20260509193521 74 236 6.0 12.0 0.00 0.00 0.00 56 1000.9
20260509193019 74 269 3.0 8.0 0.00 0.00 0.00 59 1001.1
20260509192517 73 218 3.0 8.0 0.00 0.00 0.00 60 1001.2
20260509192018 71 257 1.0 6.0 0.00 0.00 0.00 61 1001.4
20260509191515 71 243 2.0 8.0 0.00 0.00 0.00 61 1001.6
20260509191014 71 229 3.0 9.0 0.00 0.00 0.00 61 1001.7
20260509190513 71 238 4.0 11.0 0.00 0.00 0.00 61 1001.7
20260509190013 71 226 5.0 10.0 0.00 0.00 0.00 60 1001.8
20260509185512 72 233 6.0 11.0 0.00 0.00 0.00 60 1001.8
20260509185012 72 235 6.0 12.0 0.00 0.00 0.00 60 1001.9
20260509184522 72 236 3.0 10.0 0.00 0.00 0.00 62 1001.9
20260509184010 71 237 5.0 10.0 0.00 0.00 0.00 62 1001.9
20260509183510 71 228 2.0 8.0 0.00 0.00 0.00 62 1002.0
20260509183010 71 244 2.0 9.0 0.00 0.00 0.00 62 1002.1
20260509182510 71 244 3.0 9.0 0.00 0.00 0.00 61 1002.1
20260509182010 71 309 2.0 13.0 0.00 0.00 0.00 62 1002.1
20260509181509 71 247 5.0 13.0 0.00 0.00 0.00 60 1002.2
20260509181008 72 214 2.0 12.0 0.00 0.00 0.00 61 1002.2
20260509180511 71 253 4.0 12.0 0.00 0.00 0.00 60 1002.2
20260509180007 71 205 5.0 11.0 0.00 0.00 0.00 60 1002.3
20260509175506 71 220 3.0 13.0 0.00 0.00 0.00 60 1002.2
20260509175005 71 200 7.0 13.0 0.00 0.00 0.00 60 1002.4
20260509174506 71 234 6.0 11.0 0.00 0.00 0.00 60 1002.4
20260509174004 71 223 2.0 10.0 0.00 0.00 0.00 61 1002.4
20260509173508 71 186 5.0 15.0 0.00 0.00 0.00 60 1002.4
20260509173004 71 224 8.0 15.0 0.00 0.00 0.00 60 1002.5
20260509172505 71 230 5.0 13.0 0.00 0.00 0.00 61 1002.5
20260509172003 71 230 7.0 14.0 0.00 0.00 0.00 61 1002.6
20260509171501 70 231 7.0 14.0 0.00 0.00 0.00 61 1002.7
20260509171059 70 252 4.0 10.0 0.00 0.00 0.00 63 1002.7
20260509170559 69 209 5.0 9.0 0.00 0.00 0.00 62 1002.8
20260509170059 69 229 4.0 9.0 0.00 0.00 0.00 62 1002.8
20260509165558 69 187 3.0 12.0 0.00 0.00 0.00 62 1002.8
20260509165058 69 229 4.0 14.0 0.00 0.00 0.00 61 1002.8
20260509164558 69 230 6.0 14.0 0.00 0.00 0.00 61 1002.9
20260509164058 69 234 8.0 14.0 0.00 0.00 0.00 61 1002.9
20260509163557 69 197 7.0 14.0 0.00 0.00 0.00 61 1002.9
20260509163056 69 229 8.0 14.0 0.00 0.00 0.00 60 1002.8
20260509162555 69 185 5.0 13.0 0.00 0.00 0.00 60 1002.9
20260509162055 69 188 7.0 13.0 0.00 0.00 0.00 60 1003.0
20260509161601 69 243 5.0 12.0 0.00 0.00 0.00 60 1002.9
20260509161051 69 228 4.0 16.0 0.00 0.00 0.00 61 1002.9
20260509160551 69 224 6.0 16.0 0.00 0.00 0.00 60 1002.9
20260509160051 69 244 7.0 17.0 0.00 0.00 0.00 60 1002.9
20260509155549 69 212 8.0 21.0 0.00 0.00 0.00 60 1002.9
20260509155049 69 248 12.0 21.0 0.00 0.00 0.00 58 1002.9
20260509154556 69 231 9.0 18.0 0.00 0.00 0.00 59 1003.2
20260509154049 69 217 8.0 16.0 0.00 0.00 0.00 60 1003.0
20260509153552 69 212 6.0 13.0 0.00 0.00 0.00 61 1003.2
20260509153056 69 167 6.0 17.0 0.00 0.00 0.00 62 1003.4
20260509152548 68 243 7.0 17.0 0.00 0.00 0.00 61 1003.4
20260509152048 69 248 7.0 12.0 0.00 0.00 0.00 62 1003.3
20260509151557 69 231 6.0 15.0 0.00 0.00 0.00 62 1003.3
20260509151045 68 245 8.0 19.0 0.00 0.00 0.00 62 1003.2
20260509150548 68 235 7.0 19.0 0.00 0.00 0.00 62 1003.2
20260509150044 68 155 8.0 14.0 0.00 0.00 0.00 62 1003.4
20260509145543 68 184 6.0 12.0 0.00 0.00 0.00 62 1003.4
20260509145045 68 143 3.0 11.0 0.00 0.00 0.00 64 1003.5
20260509144539 67 218 4.0 11.0 0.00 0.00 0.00 64 1003.6
20260509144038 66 203 5.0 10.0 0.00 0.00 0.00 65 1003.6
20260509143537 66 231 5.0 13.0 0.00 0.00 0.00 64 1003.8
20260509143041 66 172 6.0 17.0 0.00 0.00 0.00 65 1004.0
20260509142535 65 249 5.0 17.0 0.00 0.00 0.00 67 1004.0
20260509142033 65 213 3.0 10.0 0.00 0.00 0.00 67 1004.0
20260509141541 64 233 4.0 10.0 0.00 0.00 0.00 67 1004.0
20260509141031 64 159 5.0 13.0 0.00 0.00 0.00 68 1004.1
20260509140529 64 232 6.0 11.0 0.00 0.00 0.00 68 1004.1
20260509140028 63 186 5.0 12.0 0.00 0.00 0.00 68 1004.1
20260509135531 63 232 5.0 12.0 0.00 0.00 0.00 69 1004.2
20260509135026 63 180 5.0 13.0 0.00 0.00 0.00 69 1004.3
20260509134531 62 247 5.0 13.0 0.00 0.00 0.00 70 1004.2
20260509134028 62 235 5.0 13.0 0.00 0.00 0.00 70 1004.2
20260509133524 62 226 5.0 12.0 0.00 0.00 0.00 71 1004.1
20260509133023 61 200 5.0 12.0 0.00 0.00 0.00 71 1004.2
20260509132522 61 207 6.0 13.0 0.00 0.00 0.00 71 1004.2
20260509132021 60 203 5.0 13.0 0.00 0.00 0.00 72 1004.2
20260509131526 60 217 3.0 9.0 0.00 0.00 0.00 73 1004.2
20260509131017 59 194 5.0 9.0 0.00 0.00 0.00 73 1004.2
20260509130516 59 217 4.0 9.0 0.00 0.00 0.00 73 1004.3
20260509130018 59 214 4.0 9.0 0.00 0.00 0.00 74 1004.2
20260509125517 58 219 3.0 11.0 0.00 0.00 0.00 75 1004.4
20260509125012 58 227 7.0 11.0 0.00 0.00 0.00 75 1004.4
20260509124516 58 193 5.0 11.0 0.00 0.00 0.00 75 1004.5
20260509124011 57 195 3.0 10.0 0.00 0.00 0.00 75 1004.5
20260509123511 57 248 4.0 12.0 0.00 0.00 0.00 75 1004.5
20260509123014 57 141 4.0 12.0 0.00 0.00 0.00 75 1004.5
20260509122510 57 175 3.0 12.0 0.00 0.00 0.00 75 1004.5
20260509122010 57 211 4.0 10.0 0.00 0.00 0.00 76 1004.4
20260509121509 56 229 4.0 9.0 0.00 0.00 0.00 76 1004.5
20260509121009 56 199 4.0 10.0 0.00 0.00 0.00 76 1004.6
20260509120510 56 197 3.0 10.0 0.00 0.00 0.00 76 1004.6
20260509120018 56 218 6.0 10.0 0.00 0.00 0.00 76 1004.5
20260509115509 56 222 4.0 9.0 0.00 0.00 0.00 76 1004.7
20260509115009 56 204 3.0 10.0 0.00 0.00 0.00 76 1004.6
20260509114509 55 221 5.0 10.0 0.00 0.00 0.00 76 1004.6
20260509114013 55 195 3.0 10.0 0.00 0.00 0.00 77 1004.5
20260509113509 55 198 4.0 9.0 0.00 0.00 0.00 77 1004.4
20260509113008 54 194 5.0 9.0 0.00 0.00 0.00 77 1004.5
20260509112507 54 224 4.0 11.0 0.00 0.00 0.00 77 1004.5
20260509112010 54 231 5.0 11.0 0.00 0.00 0.00 77 1004.5
20260509111512 53 207 4.0 10.0 0.00 0.00 0.00 77 1004.5
20260509111006 53 162 4.0 10.0 0.00 0.00 0.00 77 1004.4
20260509110507 53 162 3.0 8.0 0.00 0.00 0.00 77 1004.5
20260509110005 53 174 2.0 7.0 0.00 0.00 0.00 77 1004.4
20260509105510 53 207 4.0 8.0 0.00 0.00 0.00 77 1004.3
20260509105004 53 204 4.0 8.0 0.00 0.00 0.00 76 1004.4
20260509104504 53 173 3.0 7.0 0.00 0.00 0.00 76 1004.3
20260509104004 53 219 3.0 8.0 0.00 0.00 0.00 76 1004.4
20260509103503 53 210 3.0 8.0 0.00 0.00 0.00 76 1004.3
20260509103002 53 170 3.0 6.0 0.00 0.00 0.00 75 1004.4
20260509102502 53 203 1.0 5.0 0.00 0.00 0.00 75 1004.4
20260509102002 53 223 2.0 6.0 0.00 0.00 0.00 75 1004.4
20260509101507 53 202 2.0 7.0 0.00 0.00 0.00 75 1004.3
20260509101001 53 204 3.0 7.0 0.00 0.00 0.00 74 1004.3
20260509100600 53 177 2.0 6.0 0.00 0.00 0.00 74 1004.4
20260509100100 53 162 2.0 6.0 0.00 0.00 0.00 74 1004.3
20260509095600 53 203 1.0 8.0 0.00 0.00 0.00 74 1004.4
20260509095100 53 238 3.0 8.0 0.00 0.00 0.00 74 1004.4
20260509094558 53 191 3.0 7.0 0.00 0.00 0.00 74 1004.3
20260509094057 53 176 3.0 7.0 0.00 0.00 0.00 73 1004.5
20260509093556 53 192 3.0 7.0 0.00 0.00 0.00 73 1004.5
20260509093059 53 207 1.0 5.0 0.00 0.00 0.00 72 1004.5
20260509092554 54 226 1.0 5.0 0.00 0.00 0.00 72 1004.4
20260509092054 54 228 1.0 5.0 0.00 0.00 0.00 71 1004.3
20260509091554 54 218 1.0 5.0 0.00 0.00 0.00 71 1004.4
20260509091053 54 212 1.0 5.0 0.00 0.00 0.00 71 1004.3
20260509090554 54 221 2.0 5.0 0.00 0.00 0.00 71 1004.3
20260509090057 54 170 2.0 5.0 0.00 0.00 0.00 70 1004.5
20260509085551 55 191 1.0 4.0 0.00 0.00 0.00 70 1004.5
20260509085051 55 213 1.0 4.0 0.00 0.00 0.00 70 1004.4
20260509084553 55 220 1.0 5.0 0.00 0.00 0.00 69 1004.3
20260509084052 55 233 1.0 6.0 0.00 0.00 0.00 69 1004.4
20260509083553 55 228 2.0 6.0 0.00 0.00 0.00 69 1004.5
20260509083048 55 224 2.0 6.0 0.00 0.00 0.00 69 1004.5
20260509082548 55 210 2.0 5.0 0.00 0.00 0.00 69 1004.6
20260509082047 55 236 2.0 5.0 0.00 0.00 0.00 68 1004.6
20260509081552 55 227 2.0 6.0 0.00 0.00 0.00 68 1004.7
20260509081046 55 229 3.0 6.0 0.00 0.00 0.00 68 1004.8
20260509080545 56 226 3.0 6.0 0.00 0.00 0.00 68 1004.8
20260509080044 56 228 3.0 8.0 0.00 0.00 0.00 68 1004.8
20260509075544 56 236 1.0 5.0 0.00 0.00 0.00 67 1004.8
20260509075044 56 237 1.0 8.0 0.00 0.00 0.00 67 1004.8
20260509074543 56 242 4.0 8.0 0.00 0.00 0.00 67 1004.9
20260509074042 56 240 1.0 6.0 0.00 0.00 0.00 67 1004.9
20260509073542 56 227 2.0 5.0 0.00 0.00 0.00 67 1005.0
20260509073048 56 229 2.0 8.0 0.00 0.00 0.00 67 1005.1
20260509072541 56 209 3.0 7.0 0.00 0.00 0.00 67 1005.1
20260509072041 56 223 3.0 10.0 0.00 0.00 0.00 67 1005.1
20260509071549 55 178 4.0 8.0 0.00 0.00 0.00 67 1005.2
20260509071042 55 207 2.0 8.0 0.00 0.00 0.00 67 1005.1
20260509070543 55 191 3.0 7.0 0.00 0.00 0.00 66 1005.2
20260509070045 55 219 2.0 6.0 0.00 0.00 0.00 67 1005.2
20260509065538 55 228 2.0 6.0 0.00 0.00 0.00 66 1005.3
20260509065040 55 239 2.0 8.0 0.00 0.00 0.00 66 1005.3
20260509064538 55 221 2.0 6.0 0.00 0.00 0.00 66 1005.5
20260509064038 55 245 2.0 6.0 0.00 0.00 0.00 66 1005.4
20260509063537 55 231 1.0 4.0 0.00 0.00 0.00 66 1005.5
20260509063057 55 191 2.0 5.0 0.00 0.00 0.00 66 1005.5
20260509062537 55 208 2.0 8.0 0.00 0.00 0.00 66 1005.4
20260509062036 55 193 3.0 8.0 0.00 0.00 0.00 66 1005.5
20260509061557 55 147 2.0 7.0 0.00 0.00 0.00 65 1005.5
20260509061033 55 218 3.0 7.0 0.00 0.00 0.00 65 1005.5
20260509060537 55 193 2.0 5.0 0.00 0.00 0.00 65 1005.5
20260509060135 55 206 3.0 6.0 0.00 0.00 0.00 64 1005.5
20260509055532 55 194 2.0 4.0 0.00 0.00 0.00 64 1005.3
20260509055031 55 213 1.0 5.0 0.00 0.00 0.00 64 1005.3
20260509054531 55 197 1.0 5.0 0.00 0.00 0.00 63 1005.2
20260509054030 55 220 1.0 5.0 0.00 0.00 0.00 63 1005.3
20260509053530 55 176 2.0 5.0 0.00 0.00 0.00 63 1005.2
20260509053032 56 178 2.0 8.0 0.00 0.00 0.00 62 1005.2
20260509052530 56 222 3.0 8.0 0.00 0.00 0.00 62 1005.2
20260509052027 56 224 2.0 8.0 0.00 0.00 0.00 62 1005.2
20260509051528 56 169 2.0 6.0 0.00 0.00 0.00 61 1005.3
20260509051026 56 196 1.0 7.0 0.00 0.00 0.00 61 1005.3
20260509050526 56 199 2.0 6.0 0.00 0.00 0.00 61 1005.3
20260509050023 56 229 1.0 5.0 0.00 0.00 0.00 61 1005.1
20260509045522 56 205 2.0 6.0 0.00 0.00 0.00 60 1005.1
20260509045022 56 224 2.0 6.0 0.00 0.00 0.00 60 1005.0
20260509044524 56 212 1.0 5.0 0.00 0.00 0.00 60 1005.0
20260509044020 56 212 2.0 5.0 0.00 0.00 0.00 60 1005.1
20260509043519 57 187 2.0 4.0 0.00 0.00 0.00 59 1005.1
20260509043019 57 188 1.0 5.0 0.00 0.00 0.00 59 1005.1
20260509042519 57 205 1.0 4.0 0.00 0.00 0.00 59 1005.2
20260509042019 57 210 1.0 5.0 0.00 0.00 0.00 58 1005.1
20260509041616 57 169 2.0 6.0 0.00 0.00 0.00 58 1005.1
20260509041014 57 202 2.0 6.0 0.00 0.00 0.00 58 1005.3
20260509040512 57 207 1.0 6.0 0.00 0.00 0.00 57 1005.4
20260509040012 58 184 1.0 7.0 0.00 0.00 0.00 57 1005.4
20260509035514 58 186 4.0 7.0 0.00 0.00 0.00 57 1005.5
20260509035012 58 199 2.0 5.0 0.00 0.00 0.00 57 1005.6
20260509034512 58 155 2.0 6.0 0.00 0.00 0.00 57 1005.6
20260509034010 58 200 1.0 6.0 0.00 0.00 0.00 56 1005.6
20260509033514 58 207 1.0 4.0 0.00 0.00 0.00 56 1005.7
20260509033011 58 195 1.0 5.0 0.00 0.00 0.00 56 1005.7
20260509032510 58 191 1.0 5.0 0.00 0.00 0.00 56 1005.6
20260509032014 58 186 1.0 5.0 0.00 0.00 0.00 56 1005.7
20260509031509 58 216 1.0 5.0 0.00 0.00 0.00 56 1005.6
20260509031009 58 210 0.0 4.0 0.00 0.00 0.00 56 1005.7
20260509030510 59 184 1.0 5.0 0.00 0.00 0.00 56 1005.6
20260509030009 59 217 1.0 5.0 0.00 0.00 0.00 55 1005.6
20260509025508 59 163 0.0 4.0 0.00 0.00 0.00 55 1005.6
20260509025009 59 176 1.0 4.0 0.00 0.00 0.00 55 1005.7
20260509024512 59 205 0.0 4.0 0.00 0.00 0.00 55 1005.8
20260509024010 59 202 0.0 4.0 0.00 0.00 0.00 55 1005.8
20260509023508 59 212 1.0 5.0 0.00 0.00 0.00 55 1005.7
20260509023008 59 178 0.0 5.0 0.00 0.00 0.00 55 1005.6
20260509022508 59 217 1.0 4.0 0.00 0.00 0.00 54 1005.6
20260509022009 60 164 0.0 3.0 0.00 0.00 0.00 54 1005.5
20260509021508 60 165 1.0 6.0 0.00 0.00 0.00 53 1005.5
20260509021007 60 198 1.0 6.0 0.00 0.00 0.00 53 1005.5
20260509020508 60 146 2.0 8.0 0.00 0.00 0.00 53 1005.4
20260509020006 60 190 3.0 8.0 0.00 0.00 0.00 53 1005.4
20260509015508 60 198 1.0 5.0 0.00 0.00 0.00 53 1005.4
20260509015107 60 174 0.0 3.0 0.00 0.00 0.00 53 1005.3
20260509014520 60 189 0.0 4.0 0.00 0.00 0.00 53 1005.3
20260509014006 61 196 0.0 4.0 0.00 0.00 0.00 52 1005.2
20260509013505 61 193 0.0 3.0 0.00 0.00 0.00 52 1005.1
20260509013005 61 204 0.0 2.0 0.00 0.00 0.00 52 1005.2
20260509012505 61 166 0.0 3.0 0.00 0.00 0.00 51 1005.1
20260509012005 61 168 1.0 3.0 0.00 0.00 0.00 51 1005.1
20260509011505 61 179 0.0 2.0 0.00 0.00 0.00 51 1004.9
20260509011004 62 162 0.0 2.0 0.00 0.00 0.00 50 1005.0
20260509010506 62 200 0.0 3.0 0.00 0.00 0.00 50 1004.8
20260509010004 63 194 0.0 3.0 0.00 0.00 0.00 49 1004.8
20260509005504 63 206 0.0 3.0 0.00 0.00 0.00 48 1005.0
20260509005004 63 210 1.0 3.0 0.00 0.00 0.00 48 1004.8
20260509004503 64 198 1.0 4.0 0.00 0.00 0.00 47 1004.9
20260509004004 64 176 1.0 6.0 0.00 0.00 0.00 47 1004.8
20260509003507 64 205 1.0 6.0 0.00 0.00 0.00 46 1004.9
20260509003005 65 210 2.0 6.0 0.00 0.00 0.00 46 1004.8
20260509002504 65 184 1.0 6.0 0.00 0.00 0.00 45 1004.8
20260509002003 65 216 0.0 6.0 0.00 0.00 0.00 45 1004.9
20260509001503 66 207 1.0 5.0 0.00 0.00 0.00 44 1004.8
20260509001002 66 223 2.0 5.0 0.00 0.00 0.00 44 1004.8
20260509000502 66 218 1.0 6.0 0.00 0.00 0.00 44 1004.7
20260509000003 67 212 1.0 8.0 0.00 0.00 0.00 43 1004.7